Temp
9 9 9 8 8 8 9 9 9 9 9 10 9 9 10 9 9 9 9 9 9 9 8 7 7 7 6 6 6 6 6 5 6 5 5 5 5 5 5 5 5 5 5 6 6 6 6 6 6
9 9 9 8 8 8 9 9 9 9 9 9 9 9 9 9 8 8 8 8 8 9 8 7 7 7 6 6 6 6 5 5 5 5 5 5 5 5 5 5 5 5 5 6 5 5 5 6 6
9 8 8 8 8 9 9 10 9 9 9 9 10 9 9 9 8 8 8 8 8 7 8 7 6 7 7 6 5 5 5 5 5 6 5 5 5 5 5 5 5 5 5 5 6 6 6 5 6
8 8 8 8 9 9 9 9 9 9 9 9 9 9 10 9 9 8 8 7 7 7 7 7 6 6 5 5 5 4 4 4 5 5 5 5 5 5 5 5 5 5 5 5 5 5 5 5 6
8 7 7 8 9 9 9 9 8 9 9 9 9 9 9 9 9 8 8 7 7 7 7 6 7 6 6 5 4 4 4 4 4 5 5 5 5 5 5 5 5 5 5 5 5 5 5 5 5
7 7 7 8 9 9 9 9 8 9 9 9 9 9 9 9 8 8 8 7 7 7 7 7 7 7 6 6 5 4 4 4 4 4 4 5 5 5 5 5 5 5 5 5 5 5 5 5 5
7 7 8 8 9 9 9 9 9 8 8 8 8 8 8 8 8 8 7 7 7 7 7 6 6 6 6 6 5 5 5 5 4 4 4 4 5 5 5 5 6 5 5 5 5 5 5 5 5
7 6 7 7 8 8 8 8 8 8 8 8 8 8 8 8 7 7 7 7 7 7 6 6 6 5 5 5 5 5 5 4 4 5 5 5 5 5 5 5 5 6 5 5 5 6 5 5 5
6 6 7 7 7 8 8 8 8 8 8 8 8 8 7 7 7 7 7 7 7 6 6 6 6 5 5 5 4 4 4 4 4 4 4 5 5 5 5 5 5 5 6 6 5 5 5 5 6
6 6 6 7 7 7 7 7 7 7 7 7 8 7 7 7 7 6 6 6 6 6 5 5 5 5 5 5 4 4 4 4 4 4 4 4 4 5 5 5 5 5 6 5 6 6 5 5 6
5 6 7 6 6 7 6 6 6 7 8 8 7 7 7 7 7 6 6 5 5 5 5 4 4 4 4 4 4 4 4 4 4 4 4 4 4 4 4 5 5 5 5 5 6 6 6 6 6
5 6 6 6 6 6 6 6 6 7 8 7 7 7 7 7 6 6 6 5 5 4 4 4 4 4 4 3 3 3 3 4 4 4 4 4 4 4 4 4 5 5 5 5 5 5 5 5 6
5 6 6 6 6 5 5 6 5 7 7 7 7 7 7 7 6 6 6 5 5 5 4 4 3 3 3 2 2 2 3 3 3 3 3 4 4 4 5 5 4 4 5 5 5 5 5 5 5
5 5 6 6 6 5 5 5 6 8 7 7 7 7 6 6 6 6 6 5 5 4 4 4 3 3 3 2 2 2 2 2 2 3 3 3 4 4 5 5 4 4 4 4 4 5 5 5 5
5 5 5 6 6 5 6 5 8 7 7 7 7 6 6 6 6 6 5 5 4 3 3 3 3 2 2 2 2 2 2 2 2 2 2 3 3 3 3 4 4 5 5 5 5 5 4 4 5
4 4 4 6 6 6 6 6 7 7 6 6 6 6 6 6 6 6 5 5 4 4 3 2 2 2 1 1 1 1 1 1 1 1 1 2 2 2 2 2 2 3 3 4 4 4 5 5 5
3 4 5 5 6 6 5 6 6 6 6 5 5 5 5 5 5 5 5 5 4 4 2 1 1 1 1 0 0 -0 -0 -0 0 0 0 -0 -0 0 1 1 2 2 2 3 3 3 4 4 4
5 4 4 4 5 5 4 6 5 5 5 5 5 5 6 6 5 5 4 4 3 3 2 1 1 0 -0 -1 -1 -1 -1 -1 -1 -1 -1 -1 -1 -0 1 1 2 2 2 2 3 3 4 4 4
3 3 3 4 3 2 3 4 5 4 4 5 5 6 6 5 4 4 3 3 2 2 1 1 0 -1 -2 -2 -2 -2 -3 -3 -2 -2 -2 -2 -1 -1 -0 0 0 1 1 1 2 2 3 3 4
3 3 3 3 3 2 2 3 3 4 5 5 5 6 6 5 5 4 3 3 2 0 -0 -1 -2 -2 -3 -3 -3 -3 -3 -3 -3 -3 -3 -3 -2 -2 -2 -1 -1 -1 -0 0 1 1 1 2 2
3 3 3 2 2 1 1 2 3 4 4 5 6 6 6 6 6 4 3 1 0 -1 -1 -2 -3 -3 -4 -4 -4 -4 -5 -5 -5 -5 -5 -4 -3 -3 -2 -2 -2 -2 -2 -2 -2 -1 -0 -0 0
1 2 1 1 -0 -1 -1 -2 1 2 4 5 4 4 4 4 4 4 3 1 -1 -2 -3 -3 -4 -5 -5 -6 -6 -6 -6 -6 -6 -6 -5 -4 -4 -4 -3 -3 -3 -3 -3 -3 -2 -2 -2 -2 -2
1 1 0 -1 -2 -4 -3 -4 1 1 4 5 4 4 3 3 3 3 1 -2 -3 -4 -5 -5 -6 -6 -6 -7 -7 -7 -8 -7 -7 -6 -6 -6 -5 -5 -5 -5 -5 -5 -4 -4 -4 -5 -5 -5 -5
0 -1 -2 -3 -4 -8 -1 -2 0 2 2 3 3 3 3 2 2 1 0 -2 -4 -5 -5 -5 -7 -8 -8 -8 -9 -9 -9 -8 -8 -7 -7 -7 -7 -7 -7 -7 -7 -7 -7 -7 -7 -7 -8 -8 -8
-1 -3 -4 -6 -9 -5 -3 -5 1 2 1 1 1 1 1 1 1 -0 -1 -3 -5 -5 -6 -7 -8 -8 -9 -10 -10 -10 -9 -9 -9 -8 -8 -8 -8 -8 -9 -9 -9 -9 -9 -9 -10 -10 -10 -10 -10
-2 -4 -3 -3 -6 -6 -4 -5 1 1 1 1 0 0 -0 -0 -0 -1 -2 -3 -5 -7 -7 -8 -9 -9 -10 -10 -11 -10 -10 -10 -10 -9 -9 -9 -10 -10 -10 -11 -11 -11 -11 -11 -12 -12 -12 -12 -11
-5 -6 -4 -6 -6 -8 -3 -1 -0 -0 -0 -0 -1 -2 -2 -2 -2 -2 -2 -2 -4 -6 -8 -9 -10 -10 -10 -11 -11 -11 -11 -11 -10 -10 -10 -10 -11 -12 -12 -12 -12 -12 -12 -13 -13 -13 -13 -13 -13
-6 -9 -8 -8 -7 -6 -7 -4 -2 -2 -2 -3 -2 -2 -3 -3 -3 -3 -4 -4 -4 -6 -8 -9 -10 -11 -11 -12 -11 -12 -12 -12 -11 -11 -11 -11 -12 -13 -13 -13 -14 -14 -13 -13 -14 -14 -14 -14 -14
-6 -8 -9 -8 -8 -7 -8 -5 -3 -3 -3 -3 -3 -4 -4 -5 -5 -5 -5 -5 -5 -5 -7 -10 -11 -11 -12 -12 -12 -13 -12 -12 -12 -12 -13 -13 -13 -14 -14 -14 -14 -14 -14 -14 -14 -15 -15 -15 -15
-7 -8 -8 -8 -8 -8 -7 -6 -5 -4 -3 -4 -5 -6 -6 -6 -6 -7 -7 -6 -7 -8 -9 -10 -11 -12 -14 -14 -13 -13 -13 -13 -13 -13 -14 -14 -14 -15 -15 -15 -15 -15 -15 -15 -15 -15 -16 -15 -15
Height
3131 3131 3131 3133 3138 3132 3128 3129 3129 3130 3131 3132 3132 3132 3133 3132 3133 3135 3132 3132 3134 3136 3137 3137 3140 3140 3142 3142 3143 3144 3145 3147 3145 3147 3149 3149 3148 3149 3150 3152 3152 3153 3154 3155 3156 3157 3157 3158 3160
3129 3129 3129 3129 3131 3127 3126 3126 3126 3128 3129 3130 3130 3129 3129 3128 3128 3129 3131 3131 3132 3134 3135 3136 3137 3138 3138 3139 3140 3142 3144 3144 3144 3145 3147 3146 3146 3147 3148 3149 3150 3151 3152 3153 3155 3156 3156 3157 3159
3126 3127 3128 3126 3123 3121 3121 3122 3124 3125 3126 3127 3127 3126 3125 3124 3125 3126 3128 3129 3130 3132 3132 3133 3135 3136 3135 3135 3135 3137 3140 3141 3142 3142 3142 3144 3144 3144 3145 3146 3148 3148 3149 3150 3152 3154 3155 3155 3157
3124 3125 3125 3121 3118 3118 3118 3119 3120 3121 3122 3122 3121 3121 3121 3121 3122 3123 3124 3125 3127 3128 3130 3131 3130 3131 3132 3133 3133 3134 3136 3137 3139 3140 3139 3140 3142 3142 3143 3143 3145 3145 3145 3147 3149 3150 3151 3152 3154
3121 3121 3119 3115 3114 3114 3115 3116 3116 3116 3116 3117 3117 3118 3117 3117 3117 3119 3120 3121 3122 3124 3126 3127 3127 3127 3127 3128 3129 3131 3132 3134 3135 3137 3137 3137 3138 3139 3140 3140 3142 3142 3143 3144 3145 3147 3148 3149 3151
3117 3117 3114 3110 3110 3111 3111 3112 3112 3112 3112 3113 3113 3113 3113 3114 3115 3115 3115 3116 3117 3119 3120 3122 3123 3123 3124 3124 3125 3126 3128 3129 3130 3132 3133 3134 3134 3135 3135 3136 3137 3138 3139 3140 3141 3142 3144 3146 3148
3112 3111 3108 3107 3106 3107 3107 3108 3107 3109 3109 3109 3109 3109 3109 3110 3111 3112 3112 3111 3112 3114 3115 3116 3117 3118 3119 3120 3122 3123 3124 3124 3125 3127 3128 3129 3130 3130 3131 3132 3132 3133 3134 3135 3136 3137 3139 3141 3143
3108 3107 3103 3102 3102 3103 3104 3103 3104 3105 3105 3105 3105 3104 3105 3106 3105 3107 3108 3109 3109 3110 3110 3111 3112 3113 3114 3116 3117 3118 3119 3120 3121 3122 3122 3123 3125 3125 3125 3126 3127 3128 3129 3130 3131 3132 3133 3135 3138
3103 3102 3097 3097 3098 3098 3099 3099 3100 3100 3099 3100 3100 3100 3101 3101 3101 3102 3104 3104 3105 3106 3107 3107 3108 3109 3110 3111 3112 3114 3114 3114 3116 3116 3116 3117 3118 3119 3120 3120 3121 3123 3124 3124 3125 3126 3127 3129 3132
3098 3094 3094 3095 3095 3096 3095 3094 3095 3095 3095 3094 3095 3096 3096 3095 3096 3096 3098 3099 3101 3102 3103 3104 3105 3106 3107 3107 3108 3108 3109 3110 3110 3110 3111 3111 3112 3113 3114 3115 3115 3115 3117 3118 3118 3119 3121 3122 3125
3093 3090 3091 3091 3092 3092 3091 3090 3089 3088 3087 3089 3091 3090 3090 3090 3091 3091 3092 3093 3095 3097 3098 3099 3100 3101 3102 3103 3103 3103 3103 3103 3103 3103 3103 3103 3103 3105 3106 3108 3109 3109 3111 3111 3113 3114 3114 3115 3117
3087 3087 3087 3087 3087 3087 3086 3084 3082 3083 3084 3084 3084 3084 3083 3084 3085 3087 3087 3088 3089 3090 3091 3093 3094 3095 3096 3097 3097 3098 3098 3098 3097 3098 3097 3097 3098 3098 3099 3100 3101 3103 3103 3105 3105 3106 3108 3109 3110
3080 3081 3082 3082 3081 3081 3079 3078 3076 3075 3077 3077 3076 3077 3077 3077 3077 3078 3080 3082 3082 3084 3085 3087 3088 3089 3090 3091 3092 3092 3091 3092 3092 3094 3094 3093 3092 3092 3092 3092 3093 3094 3096 3097 3098 3100 3100 3101 3102
3078 3077 3077 3076 3076 3073 3072 3071 3069 3070 3071 3070 3069 3070 3070 3070 3070 3070 3071 3075 3076 3077 3078 3079 3081 3082 3083 3084 3084 3085 3086 3087 3087 3087 3088 3087 3087 3086 3086 3087 3088 3089 3089 3090 3091 3091 3091 3093 3094
3072 3071 3069 3070 3069 3067 3066 3060 3062 3063 3063 3063 3063 3063 3063 3063 3062 3064 3065 3067 3069 3070 3071 3072 3073 3074 3075 3076 3077 3077 3078 3080 3080 3081 3081 3080 3080 3080 3081 3081 3082 3082 3081 3081 3082 3084 3085 3086 3087
3069 3065 3062 3064 3063 3059 3060 3049 3058 3056 3055 3056 3057 3057 3056 3055 3055 3056 3058 3059 3060 3061 3062 3064 3065 3067 3067 3068 3069 3071 3072 3072 3073 3073 3073 3073 3073 3073 3072 3072 3074 3075 3075 3075 3075 3076 3076 3076 3077
3063 3057 3055 3057 3057 3053 3052 3044 3051 3050 3049 3049 3050 3050 3049 3048 3047 3048 3050 3052 3053 3054 3054 3056 3058 3059 3060 3061 3062 3062 3063 3063 3063 3064 3064 3065 3066 3066 3066 3066 3066 3066 3066 3066 3067 3066 3067 3066 3067
3057 3054 3052 3051 3050 3046 3042 3037 3043 3044 3041 3041 3041 3040 3039 3038 3040 3041 3041 3042 3044 3045 3046 3048 3048 3049 3050 3051 3053 3054 3054 3054 3054 3054 3055 3056 3057 3057 3057 3056 3056 3056 3057 3057 3057 3057 3057 3057 3058
3053 3051 3047 3047 3045 3040 3035 3028 3033 3034 3032 3031 3032 3032 3030 3030 3032 3030 3031 3032 3034 3036 3038 3039 3040 3041 3043 3043 3044 3044 3045 3045 3045 3046 3046 3046 3046 3046 3046 3046 3046 3046 3046 3045 3044 3044 3045 3045 3046
3047 3043 3040 3038 3037 3032 3027 3016 3022 3025 3022 3024 3024 3022 3020 3020 3017 3017 3019 3021 3025 3029 3030 3029 3031 3033 3034 3035 3035 3035 3036 3036 3036 3037 3037 3037 3037 3037 3037 3036 3036 3035 3035 3034 3034 3034 3035 3035 3034
3038 3035 3032 3031 3029 3025 3018 3002 3011 3013 3014 3015 3015 3013 3012 3009 3007 3006 3008 3012 3017 3020 3022 3023 3024 3024 3024 3025 3026 3027 3027 3027 3028 3028 3028 3029 3028 3027 3026 3026 3026 3025 3025 3025 3025 3024 3025 3025 3024
3030 3031 3027 3025 3023 3020 3017 2999 2998 3003 3005 3003 3004 3002 3001 3001 3001 3001 3001 3003 3009 3013 3013 3014 3015 3016 3018 3018 3020 3021 3021 3021 3022 3023 3021 3019 3018 3016 3015 3014 3014 3014 3014 3013 3012 3011 3009 3010 3011
3025 3024 3022 3020 3018 3015 3011 3015 2991 2996 2996 2997 2997 2996 2995 2994 2994 2995 2996 3000 3002 3003 3003 3005 3006 3007 3009 3010 3011 3012 3013 3014 3014 3014 3013 3011 3008 3006 3004 3003 3001 3000 3000 3000 2999 2998 2996 2993 2994
3019 3018 3017 3015 3013 3010 3000 3003 2985 2991 2993 2993 2993 2991 2989 2990 2990 2990 2991 2992 2995 2995 2995 2998 2999 3000 3002 3003 3004 3006 3007 3007 3006 3005 3004 3002 2999 2997 2994 2992 2991 2990 2989 2988 2987 2987 2987 2985 2984
3013 3013 3014 3012 3011 2999 2995 2996 2984 2989 2986 2987 2987 2986 2985 2985 2985 2986 2986 2987 2989 2990 2991 2992 2992 2993 2995 2997 2998 2999 2999 2999 2997 2996 2994 2992 2990 2989 2987 2985 2983 2981 2979 2978 2977 2976 2976 2975 2975
3006 3008 3006 2999 3000 2994 2992 2985 2978 2983 2982 2981 2981 2982 2983 2981 2982 2982 2982 2982 2983 2984 2985 2986 2987 2988 2989 2991 2992 2992 2992 2989 2987 2986 2984 2983 2983 2982 2980 2979 2977 2974 2972 2970 2968 2968 2967 2967 2966
3003 3001 3000 2997 2994 2993 2982 2976 2977 2978 2977 2976 2978 2976 2977 2979 2979 2979 2979 2979 2977 2978 2979 2980 2981 2982 2983 2985 2985 2984 2983 2982 2980 2978 2977 2976 2974 2974 2972 2970 2969 2967 2964 2962 2960 2960 2959 2957 2957
2997 3001 2998 2995 2992 2987 2977 2976 2973 2975 2976 2977 2975 2973 2972 2973 2974 2974 2975 2974 2973 2973 2974 2974 2975 2977 2979 2978 2977 2975 2974 2972 2971 2970 2969 2967 2966 2964 2963 2961 2960 2959 2956 2954 2952 2952 2951 2950 2949
2993 2992 2994 2994 2993 2989 2986 2975 2974 2973 2973 2971 2970 2968 2969 2969 2968 2967 2967 2967 2967 2966 2966 2968 2970 2972 2972 2971 2970 2969 2967 2966 2966 2964 2961 2959 2958 2956 2955 2954 2952 2951 2948 2945 2944 2943 2943 2942 2942
2985 2984 2988 2988 2990 2987 2985 2971 2971 2973 2972 2970 2967 2964 2962 2960 2958 2958 2958 2958 2958 2960 2961 2963 2965 2966 2965 2966 2964 2964 2961 2960 2959 2957 2954 2952 2950 2948 2946 2945 2943 2941 2939 2937 2935 2935 2934 2934 2934
Wind_Speed
8 7 8 10 9 11 18 16 19 15 14 17 21 19 22 24 23 15 13 9 13 15 16 17 13 17 16 15 13 14 13 15 16 14 15 14 12 9 10 11 10 7 6 8 8 6 4 4 6
10 9 11 12 13 16 16 18 18 16 17 18 19 24 26 26 27 23 15 6 7 8 15 17 13 11 15 17 18 15 16 14 19 16 18 17 16 15 13 12 11 14 11 7 6 7 7 7 8
11 11 12 10 19 24 14 16 13 15 20 20 18 17 19 25 27 27 24 21 19 15 14 14 16 16 18 17 17 18 18 17 16 21 19 21 18 20 17 15 15 13 15 13 13 12 9 9 7
13 14 15 19 19 15 21 16 14 16 18 19 20 16 18 18 21 22 23 24 20 16 16 18 18 19 19 22 21 20 21 19 18 20 24 19 23 19 20 20 19 17 16 16 15 14 13 11 10
15 18 21 22 23 23 20 20 19 19 20 19 20 20 21 17 18 20 19 20 19 19 19 19 20 21 20 21 22 24 24 22 22 21 21 22 24 24 24 22 22 21 20 20 20 19 18 16 15
19 20 20 27 26 22 22 23 22 22 23 21 22 22 23 21 19 18 21 22 21 21 21 20 19 20 20 21 23 25 25 25 23 23 23 23 24 24 25 26 26 25 25 24 24 23 22 22 19
22 24 29 29 28 23 26 21 22 21 23 23 24 24 24 22 23 22 22 23 23 22 21 21 21 21 22 22 23 23 24 24 25 26 25 24 26 27 26 27 27 27 28 27 27 26 26 24 23
23 27 32 32 30 29 27 25 22 23 24 25 23 25 25 24 24 26 26 25 25 24 24 24 23 23 23 23 23 24 24 25 27 28 27 28 29 29 29 30 29 29 30 29 29 29 28 28 27
24 28 34 33 28 26 25 26 27 26 27 24 24 24 23 22 22 24 27 28 27 26 26 26 25 25 24 24 24 24 25 27 28 29 29 30 31 31 31 31 30 31 31 32 31 30 30 30 30
26 32 32 32 28 23 25 24 25 26 28 28 27 24 23 23 24 25 25 26 27 26 27 27 26 25 25 26 27 27 28 30 30 30 31 30 30 30 30 30 30 31 31 32 31 31 31 33 32
29 34 30 30 26 24 24 27 28 29 33 30 29 28 27 26 26 26 28 27 26 27 27 27 27 28 28 29 30 31 32 32 31 31 30 29 29 30 30 29 29 30 31 30 30 31 32 33 33
29 30 28 27 27 27 28 30 32 33 32 32 31 30 29 27 26 27 28 28 28 28 28 29 29 30 30 31 31 32 32 32 31 30 31 32 32 31 30 30 31 30 30 29 29 29 30 31 32
29 28 26 26 29 29 31 32 34 33 33 31 31 29 27 27 27 28 28 29 30 30 30 30 30 31 31 32 32 32 31 30 31 31 32 33 33 33 33 33 32 31 30 30 30 30 30 31 31
25 24 25 27 28 32 32 33 34 31 30 29 28 27 27 27 29 30 29 28 29 29 30 31 31 32 32 32 31 31 31 30 31 31 31 32 33 35 36 36 34 33 32 32 32 33 34 34 34
28 29 30 29 28 30 31 37 32 28 27 27 27 26 26 26 29 30 30 29 29 29 31 32 33 33 33 33 33 32 32 31 32 33 33 34 34 34 34 35 35 35 35 36 36 36 36 36 36
28 32 33 29 27 28 25 38 27 25 25 23 20 21 24 26 28 29 30 30 30 33 33 34 34 34 34 34 33 33 32 32 33 32 32 32 31 31 31 31 32 33 35 37 38 39 40 41 40
26 30 30 27 26 29 29 35 27 27 25 24 25 28 30 30 31 29 30 31 31 33 35 34 34 35 35 35 34 33 32 32 32 31 31 30 29 30 31 32 34 34 35 36 37 39 40 41 42
26 26 26 26 26 29 32 41 35 34 37 36 36 34 34 34 32 33 33 34 35 35 35 35 36 36 36 35 34 33 32 31 31 30 30 30 30 30 31 33 35 35 35 36 38 40 41 43 45
25 29 31 32 34 38 42 47 42 40 42 41 37 33 35 37 37 39 38 39 38 37 36 35 37 37 35 34 34 33 32 31 30 29 29 29 29 30 32 33 35 35 36 37 38 38 39 41 44
29 32 35 36 36 36 40 49 43 39 42 37 37 39 41 41 42 44 43 43 40 35 35 36 36 35 35 35 34 33 32 31 29 28 27 28 30 31 32 33 34 35 35 36 37 38 38 40 43
33 35 36 37 38 38 40 51 32 19 19 21 30 31 30 34 41 43 43 41 36 34 34 35 34 35 36 35 34 32 31 29 27 27 28 29 31 32 33 34 34 35 34 34 35 37 38 37 39
35 31 31 29 25 14 18 17 36 35 26 28 26 25 28 35 39 40 41 39 33 30 32 33 33 34 34 33 32 30 28 28 27 27 29 31 33 34 35 35 35 35 35 35 36 36 37 36 35
31 28 25 24 22 22 23 12 26 12 13 9 11 16 21 26 28 31 32 29 26 29 30 30 30 31 32 32 31 28 27 27 27 27 29 30 33 34 36 36 35 35 35 36 35 34 34 37 35
27 24 21 21 19 6 24 18 15 7 5 9 22 21 19 21 24 26 26 25 25 28 30 29 30 30 30 29 28 27 26 25 27 29 30 30 31 33 35 36 35 35 35 35 34 33 32 33 35
28 20 3 4 1 6 4 12 23 21 22 17 21 23 24 23 21 21 22 22 23 27 27 26 26 27 28 28 27 25 24 25 27 29 30 30 31 32 33 33 34 34 34 34 34 33 32 32 32
18 22 9 7 4 3 6 9 11 19 20 20 14 12 15 17 20 20 20 21 23 25 24 23 25 25 27 27 24 23 24 27 30 31 31 31 31 31 32 32 32 32 32 33 33 32 31 31 31
10 19 18 8 15 2 11 17 17 19 5 4 6 13 23 25 20 22 24 27 27 25 23 22 23 26 26 23 21 24 28 31 32 33 34 34 33 31 31 31 30 30 30 31 32 31 30 30 29
24 12 6 5 3 4 5 7 6 4 8 14 14 24 31 29 24 18 21 25 26 26 24 24 26 24 23 19 22 27 32 35 35 36 36 34 33 32 31 30 30 30 30 31 31 30 28 28 27
17 22 15 5 6 2 3 7 5 21 30 30 25 33 34 24 27 33 31 26 30 29 27 25 23 22 20 22 26 29 33 33 35 36 34 33 32 32 31 31 30 29 29 30 30 28 27 27 26
18 17 10 5 4 10 10 17 24 16 22 26 33 30 36 38 27 21 21 23 27 26 24 20 21 26 25 23 25 29 31 35 36 35 33 32 31 31 30 30 29 29 28 29 28 27 26 26 27
Wind_Direction
242 237 232 228 214 228 239 237 241 241 238 241 239 244 256 257 248 245 259 240 230 238 240 224 229 249 243 231 231 230 234 234 253 245 249 252 249 234 239 238 226 214 197 189 205 220 233 188 163
243 236 223 224 227 231 248 242 241 241 243 247 254 259 258 250 248 247 247 223 217 239 251 228 236 258 245 236 236 237 231 241 242 248 243 250 255 251 247 247 250 234 240 237 213 201 201 200 210
236 240 228 221 230 236 246 238 250 250 249 254 267 269 256 248 247 248 254 250 259 263 244 242 240 261 261 256 260 254 255 240 250 243 241 246 252 261 258 254 250 246 241 242 233 235 221 212 219
230 230 228 234 240 241 239 244 250 249 252 254 267 260 261 253 247 244 246 251 258 257 246 251 261 255 244 245 252 252 261 248 252 246 251 250 242 254 255 255 260 257 256 257 255 247 241 237 234
232 231 230 240 246 248 245 251 257 260 264 270 271 269 265 253 243 239 240 243 240 246 251 252 257 257 254 250 249 251 256 255 259 248 248 258 249 252 256 255 255 252 253 256 257 253 251 247 241
235 234 239 245 254 252 248 252 255 261 268 274 269 269 261 257 250 237 235 238 242 241 240 242 242 248 251 252 252 253 254 257 257 255 249 253 254 255 256 255 255 254 255 253 255 255 252 251 248
235 241 248 255 259 252 253 249 256 262 262 267 275 268 266 259 251 243 234 232 236 238 241 240 239 238 240 243 244 245 250 255 258 259 257 256 254 256 254 255 257 258 255 253 253 253 253 253 252
237 240 249 253 257 261 261 261 258 261 262 271 270 266 270 260 250 246 242 239 236 237 238 240 242 242 240 238 241 245 248 250 254 259 262 261 260 259 259 258 256 255 257 254 252 253 253 253 253
244 239 247 252 257 263 261 262 266 266 268 271 274 273 271 265 255 247 243 244 244 245 246 243 242 243 245 246 244 243 248 254 257 259 261 261 260 260 259 259 258 257 256 255 253 254 253 253 253
238 243 250 256 260 265 265 262 264 263 267 269 275 280 274 265 257 254 249 246 245 245 245 246 246 247 249 251 254 256 257 258 261 262 262 262 261 260 258 257 258 258 256 252 253 254 253 253 254
244 249 252 256 258 262 262 263 263 263 267 276 283 278 271 261 255 250 251 251 248 247 247 248 248 249 251 252 254 257 260 263 265 266 267 267 267 266 265 262 259 258 257 255 251 249 251 252 254
248 254 256 258 259 262 264 262 263 266 272 274 275 271 270 270 265 259 254 252 253 253 251 251 250 250 251 252 253 256 258 260 260 259 261 263 264 265 266 266 266 264 261 258 258 256 252 251 251
250 253 255 262 267 265 265 265 267 265 266 268 267 267 266 264 262 258 254 250 250 252 254 254 253 253 254 255 256 256 255 253 253 255 257 259 262 265 267 268 268 266 264 265 265 263 263 262 258
259 262 267 265 265 269 270 267 267 270 272 273 271 268 263 262 259 254 252 251 250 251 252 253 255 257 259 260 261 261 261 259 259 260 260 261 260 261 261 262 262 263 265 267 267 267 267 265 264
263 268 271 270 271 271 274 270 273 284 276 272 273 274 270 270 262 258 255 251 249 249 249 250 253 254 256 257 257 257 259 260 260 259 258 257 254 250 249 250 254 258 262 266 266 267 266 263 262
268 272 273 276 275 272 271 273 281 280 275 273 269 272 275 272 266 260 255 252 250 250 250 250 250 252 253 253 255 256 257 258 260 261 260 255 251 251 255 259 261 262 264 265 266 267 267 267 265
263 262 270 276 273 275 271 276 280 280 278 274 278 279 276 273 268 265 259 256 254 254 252 252 252 252 253 254 253 254 257 260 263 262 257 251 250 252 257 260 262 264 263 262 261 262 262 263 264
269 266 275 275 278 275 277 277 281 281 278 279 278 277 277 276 277 272 265 259 255 255 254 253 253 252 252 253 256 259 261 264 264 260 254 252 253 258 265 270 273 272 269 266 264 262 262 261 261
269 274 276 277 278 279 278 280 281 280 276 278 280 280 276 277 277 269 264 259 256 254 255 255 255 255 256 258 260 262 266 266 263 259 257 261 268 274 277 278 278 277 275 272 270 269 268 267 265
272 274 276 282 280 281 286 282 282 282 282 283 281 276 274 274 274 270 265 264 261 258 257 255 254 255 255 256 259 262 266 266 264 262 264 271 276 279 280 280 278 277 275 274 272 270 269 268 266
270 270 276 278 284 283 286 287 293 292 288 281 277 271 262 263 264 265 263 265 265 263 260 259 257 254 252 253 256 260 262 262 261 263 269 273 278 281 283 282 279 277 275 272 270 268 266 264 265
273 277 277 274 274 269 274 295 292 295 302 299 294 278 269 266 267 269 266 265 264 262 258 256 254 254 255 257 259 261 263 262 263 270 279 286 289 290 288 286 284 282 281 279 279 278 277 275 273
271 274 271 269 267 275 273 251 288 283 314 338 314 284 269 270 273 275 273 273 267 259 258 256 252 251 251 252 254 256 256 258 266 277 285 290 292 291 290 289 288 287 286 285 285 286 287 287 286
264 264 264 268 267 261 267 228 280 266 286 286 293 286 277 280 284 287 283 268 257 252 255 256 252 249 249 250 252 254 257 268 281 289 293 294 294 293 293 291 290 289 289 288 288 288 287 286 286
251 243 265 258 198 238 220 201 253 290 291 287 281 273 284 299 293 291 288 280 266 260 260 257 253 248 245 245 248 254 268 280 289 294 296 298 297 293 289 288 287 287 288 289 289 290 288 286 284
252 226 207 239 212 255 230 236 275 287 292 289 292 300 318 321 316 309 299 287 273 268 264 259 252 245 241 245 251 270 286 296 300 300 300 297 292 287 285 284 284 284 285 285 286 285 284 282 280
247 227 240 261 276 298 246 260 261 277 291 339 356 360 346 335 321 322 314 300 285 276 269 258 246 237 241 246 271 290 298 302 302 302 299 293 289 286 283 282 282 282 282 281 280 280 279 278 277
242 256 266 207 253 243 308 275 259 1 47 352 341 332 331 319 307 304 308 305 294 280 267 253 242 239 240 263 284 296 302 301 301 299 295 291 289 287 285 284 283 281 280 277 276 275 274 272 273
263 246 248 238 264 294 317 288 355 320 316 313 308 317 315 301 300 299 299 283 273 265 256 250 245 244 250 274 287 296 298 296 295 292 289 287 285 284 283 282 281 281 278 276 273 272 269 270 273
266 251 226 178 226 244 253 270 289 296 301 292 302 305 308 308 307 302 288 278 272 266 260 251 240 242 251 270 284 294 295 295 293 289 287 284 282 281 282 282 283 281 278 274 272 270 269 270 273